Flag for France Weather past 2 weeks in Reims, France

50 °F

Mostly cloudy.

Feels Like: 48 °F
Forecast: 46 / 64 °F
Wind: 5 mph from North

Location: Chalons-Vatry

Current Time: Oct 9, 2015 at 7:44:11 AM

Latest Report: Oct 9, 2015 at 7:00 AM

Visibility: 4 mi

Pressure: 30.15 "Hg

Humidity: 94%

Dew point: 48 °F

Location of ReimsLocation

Historic Weather in Reims — Graph


Reims temperature yesterday

Maximum temperature yesterday: 59 °F (at 12:30 PM)
Minimum temperature yesterday: 48 °F (at 7:30 AM)
Average temperature yesterday: 53 °F

Past Weeks' High & Low Weather Summary

High70 °F (Oct 3, 3:00 PM)100% (Sep 25, 4:00 AM)30.51 "Hg (Sep 25, 4:00 AM)
Low37 °F (Oct 2, 7:30 AM)37% (Sep 30, 4:30 PM)29.59 "Hg (Oct 6, 8:00 AM)
Average55 °F78%30.14 "Hg
* Reported Sep 24 7:00 AM — Oct 9 7:00 AM, Reims, Weather by CustomWeather, © 2015

Note: Actual official high and low records may vary slightly from our data, if they occured in-between our weather recording intervals... More about our weather records


Reims weather history for previous 24 hours

Time TempWeatherWind HumidityBarometerVisibility
7:00 AM
Fri, Oct 9
50 °FMostly cloudy.5 mph94%30.15 "Hg4 mi
6:30 AM50 °FMostly cloudy.5 mph94%30.15 "Hg4 mi
5:30 AM50 °FMostly cloudy.7 mph94%30.15 "Hg4 mi
5:00 AM50 °FOvercast.6 mph94%30.15 "Hg4 mi
4:30 AM50 °FMostly cloudy.7 mph94%30.15 "Hg6 mi
4:00 AM50 °FOvercast.6 mph94%30.15 "HgN/A
3:30 AM50 °FOvercast.3 mph94%30.18 "HgN/A
3:00 AM50 °FClear.2 mph94%30.18 "Hg10 mi
2:30 AM50 °FClear.3 mph94%30.15 "Hg6 mi
2:00 AM50 °FClear.3 mph94%30.18 "Hg4 mi
1:30 AM50 °FClear.3 mph94%30.18 "Hg4 mi
1:00 AM50 °FClear.5 mph100%30.18 "Hg4 mi
12:30 AM50 °FClear.3 mph100%30.18 "Hg4 mi
11:30 PM
Thu, Oct 8
52 °FClear.2 mph94%30.18 "Hg10 mi
11:00 PM52 °FClear.2 mph94%30.18 "Hg10 mi
10:30 PM52 °FClear.2 mph94%30.18 "Hg10 mi
10:00 PM52 °FClear.1 mph94%30.18 "Hg10 mi
9:30 PM52 °FClear.3 mph94%30.18 "Hg10 mi
9:00 PM52 °FSunny.5 mph94%30.18 "Hg10 mi
8:30 PM52 °FLow clouds.7 mph94%30.18 "HgN/A
8:00 PM54 °FSunny.5 mph82%30.18 "Hg10 mi
7:30 PM54 °FOvercast.3 mph82%30.15 "HgN/A
7:00 PM54 °FMostly cloudy.5 mph77%30.15 "HgN/A
6:30 PM55 °FMostly cloudy.3 mph72%30.15 "HgN/A
6:00 PM54 °FMostly cloudy.5 mph77%30.15 "HgN/A
5:30 PM54 °FOvercast.5 mph77%30.15 "HgN/A
5:00 PM55 °FMore clouds than sun.7 mph72%30.15 "HgN/A
4:30 PM55 °FPartly sunny.10 mph72%30.15 "HgN/A
4:00 PM57 °FMostly cloudy.3 mph67%30.15 "HgN/A
3:30 PM57 °FOvercast.No wind72%30.15 "HgN/A
3:00 PM55 °FOvercast.6 mph77%30.15 "HgN/A
2:30 PM55 °FBroken clouds.7 mph77%30.15 "HgN/A
2:00 PM57 °FMore clouds than sun.3 mph67%30.15 "HgN/A
1:30 PM57 °FMore clouds than sun.5 mph72%30.15 "HgN/A
1:00 PM57 °FBroken clouds.5 mph72%30.15 "HgN/A
12:30 PM59 °FOvercast.5 mph63%30.15 "HgN/A
12:00 PM57 °FOvercast.1 mph72%30.15 "HgN/A
11:30 AM57 °FOvercast.2 mph72%30.15 "HgN/A
11:00 AM55 °FSunny.2 mph77%30.15 "Hg10 mi
10:30 AM54 °FSunny.6 mph82%30.15 "Hg10 mi
10:00 AM54 °FSunny.6 mph82%30.15 "Hg10 mi
9:30 AM52 °FClear.3 mph88%30.12 "Hg10 mi
9:00 AM50 °FClear.5 mph94%30.12 "Hg10 mi
8:30 AM50 °FClear.5 mph94%30.12 "Hg10 mi
8:00 AM50 °FClear.5 mph94%30.12 "Hg10 mi
7:30 AM48 °FClear.3 mph100%30.09 "Hg10 mi
7:00 AM50 °FClear.3 mph94%30.09 "Hg10 mi
Weather by CustomWeather, © 2015

See weather overviewHow to use our weather pages